Regional Weather Roundup
Issued by NWS Portland, ME

Current Version | Previous Version | Text Only | Print | Product List | Glossary On
Versions: 1 2 3 4 5 6 7 8 9 10 11 12 13 14 15 16 17 18 19 20 21 22 23 24 25 26 27 28 29 30 31 32 33 34 35 36 37 38 39 40 41 42 43 44 45 46 47 48 49 50
000
ASUS41 KGYX 281710
RWRGYX
WEATHER ROUNDUP FOR MAINE AND NEW HAMPSHIRE
NATIONAL WEATHER SERVICE GRAY ME
100 PM EDT SAT MAY 28 2016

MEZ002-005-006-010-012-015-018-020-021-024-026-027-029-281800-
MAINE

CITY           SKY/WX    TMP DP  RH WIND       PRES   REMARKS
PORTLAND       MOSUNNY   86  66  51 S8        30.04F
SANFORD        MOSUNNY   88  66  48 S7        30.05F HX  90
BAR HARBOR     MOSUNNY   77  64  64 CALM      30.05S
WISCASSET      MOSUNNY   87  63  44 S3        30.05S
ROCKLAND       MOSUNNY   68  58  70 SE6       30.05F
FRYEBURG       MOSUNNY   90  57  32 SE7       30.04F
LEWISTONAUBURN MOSUNNY  N/A N/A N/A W6        30.05S
AUGUSTA        MOSUNNY   88  60  38 NW9       30.05S
WATERVILLE     CLOUDY    87  62  43 W7        30.02
BANGOR         CLOUDY    83  65  54 N12       30.06S
GREENVILLE       N/A     75  56  51 N9G16     30.09S
MILLINOCKET    CLOUDY    70  59  68 VRB5      30.10S
HOULTON        MOSUNNY   68  53  58 NW13G22   30.09S
PRESQUE ISLE   CLOUDY    64  50  60 N17       30.14R
FRENCHVILLE    CLOUDY    59  46  62 N14G20    30.15R
CARIBOU        CLOUDY    63  49  60 N10       30.13R
$$

NHZ002-005-008-009-011-012-014-281800-
NEW HAMPSHIRE

CITY           SKY/WX    TMP DP  RH WIND       PRES   REMARKS
PORTSMOUTH     PTSUNNY   88  69  53 E10       30.03F HX  92
ROCHESTER      MOSUNNY   90  66  45 SE6       30.04F HX  92
NASHUA         MOSUNNY   90  63  40 SW3       30.05F HX  91
MANCHESTER     PTSUNNY   89  62  40 VRB5      30.04F
CONCORD        SUNNY     91  64  40 NW8       30.06S HX  92
LACONIA        PTSUNNY   86  65  49 N6        30.08S
PLYMOUTH       FAIR      88  57  34 W6        30.06S
BERLIN         PTSUNNY   87  52  29 VRB3      30.08F
WHITEFIELD     CLOUDY    86  60  41 NW7       30.09S
JAFFREY        MOSUNNY   88  59  37 SW9       30.11F
KEENE          SUNNY    N/A N/A N/A N3        30.08F
LEBANON        MOSUNNY   90  62  39 VRB5      30.06F HX  90
MT WASHINGTON  CLOUDY    59  54  82 W12G25      N/A
$$

VTZ005-007-008-281800-
VERMONT

CITY           SKY/WX    TMP DP  RH WIND       PRES   REMARKS
ST JOHNSBURY     N/A     87  57  35 MISG      30.05F
MONTPELIER     FAIR      83  55  38 NW8       30.14S
BURLINGTON     PTSUNNY   87  62  43 E5        30.08S
$$

MAZ007-012-024-CTZ003-RIZ002-NYZ038-NYZ072-281800-
SOUTHERN NEW ENGLAND AND NY

CITY           SKY/WX    TMP DP  RH WIND       PRES   REMARKS
BOSTON         MOSUNNY   91  64  40 W8        30.05F HX  92
NANTUCKET      SUNNY     66  58  75 SW18      30.14S
PROVIDENCE     MOSUNNY   80  63  55 SE12      30.10F
HARTFORD       PTSUNNY   89  68  49 S8        30.07F HX  93
ALBANY         PTSUNNY   88  62  41 W6        30.09F
NEW YORK CITY  MOSUNNY   90  70  51 S9        30.10F HX  95
$$

ANZ081-ANZ082-ANZ150-NHZ014-MEZ023>029-281800-
COASTAL MARINE OBSERVATIONS

STATION/POSITION TIME  TEMP    WIND        PRES    WAVE
                       AIR SEA DIR/SP/G            HT/PER
                 (UTC) (F)     (DEG/KT/KT) (MB)    (FT/S)
MOUNT DESERT ROC 1700   58     160/  3/  3 1018.5R
MATINICUS ROCK   1600   54     220/  9/  9 1017.8R
ISLE OF SHOALS   1600   66     120/  6/  7 1017.9F
JEFFREYS LEDGE   1608      56                N/A     2/ 5
CASHES LEDGE BUO 1650   56 54  220/  6/  6 1017.9F   2/ 5
GEORGES BANK BUO 1550   58 53              1021.1    3/ 4
$$

.............KEY..............
   WCI - WIND CHILL
   TC  - TEMPERATURE IN CELSIUS
   VSB - VISIBILITY IN MILES
   HX  - HEAT INDEX
   FAIR- INDICATES FEW OR NO CLOUDS BELOW 12,000 FT, WITH NO
         SIGNIFICANT WEATHER AND/OR OBSTRUCTIONS TO VISIBILITY.






USA.gov is the U.S. government's official web portal to all federal, state and local government web resources and services.